Location: Bernadets
(43.3537°N, 0.3167°E)
Time: 06:41:51
(UTC+00:00)

USA 267 - Pass Details

Date: 24 October 2021
Orbit: 1101 x 1107 km, 123.0° (Epoch: 27 November)

Event Time Altitude Azimuth Distance (km) Brightness Sun altitude
Rises 17:54:23 0° 129° (SE) 3,907 5.7 -10.3°
Reaches altitude 10° 17:56:51 10° 130° (SE) 2,951 5.1 -10.7°
Maximum altitude 18:03:24 88° 220° (SW) 1,106 3.3 -11.9°
Drops below altitude 10° 18:09:58 10° 311° (NW) 2,963 6.2 -13.1°
Sets 18:12:27 0° 311° (NW) 3,923 6.9 -13.6°
